Location: Ku?niki
(51.4449°N, 17.8974°E)
Time: 17:49:20
(UTC+00:00)

XW-2A - Pass Details

Date: 08 July 2022
Orbit: 396 x 406 km, 97.2° (Epoch: 10 August)

Event Time Altitude Azimuth Distance (km) Brightness Sun altitude
Exits shadow 19:57:41 - 181° (S) 2,034 ? -6.7°
Reaches altitude 10° 19:59:06 10° 187° (S) 1,441 ? -6.8°
Maximum altitude 20:02:03 43° 261° (W) 575 ? -7.1°
Drops below altitude 10° 20:05:02 10° 335° (NNW) 1,456 ? -7.4°
Sets 20:07:05 0° 342° (NNW) 2,322 ? -7.6°
